Home > Weather > Darmstadt > Past weeks

Flag for Germany Weather for the Past 2 Weeks in Darmstadt, Hesse, Germany

Now
48 °F

Partly sunny.


Feels Like: 42 °F
Forecast: 43 / 49 °F
Wind: 15 mph from Southwest

Location: Frankfurt-M-Flughafen Airport

Current Time: Feb 7, 2016 at 5:22:26 PM

Latest Report: Feb 7, 2016 at 4:50 PM


Visibility: N/A

Pressure: 29.68 "Hg

Humidity: 66%

Dew point: 37 °F

Location of DarmstadtLocation

Historic Weather in Darmstadt — Graph

°F

Darmstadt Temperature Yesterday

Maximum temperature yesterday: 55 °F (at 3:20 PM)
Minimum temperature yesterday: 36 °F (at 7:20 AM)
Average temperature yesterday: 45 °F

High & Low Weather Summary for the Past Weeks

 TemperatureHumidityPressure
High57 °F (Feb 1, 3:50 AM)100% (Jan 24, 12:50 AM)30.60 "Hg (Jan 24, 12:50 AM)
Low28 °F (Jan 29, 4:50 AM)54% (Jan 25, 3:50 PM)29.59 "Hg (Feb 7, 7:50 AM)
Average44 °F82%30.16 "Hg
* Reported Jan 23 4:20 PM — Feb 7 4:20 PM, Darmstadt, Weather by CustomWeather, © 2016

Note: Actual official high and low records may vary slightly from our data, if they occured in-between our weather recording intervals... More about our weather records

Advertising

Darmstadt Weather History for the Previous 24 Hours

 ConditionsComfort  
Time TempWeatherWind HumidityBarometerVisibility
4:20 PM
Sun, Feb 7
48 °FBroken clouds.10 mph82%29.68 "HgN/A
3:50 PM48 °FBroken clouds.14 mph82%29.68 "HgN/A
3:20 PM48 °FBroken clouds.10 mph82%29.65 "HgN/A
2:50 PM48 °FBroken clouds.9 mph82%29.65 "HgN/A
2:20 PM46 °FLight rain. Partly sunny.8 mph93%29.65 "HgN/A
1:50 PM46 °FLight rain. Broken clouds.10 mph93%29.65 "HgN/A
1:20 PM48 °FLight rain. Broken clouds.13 mph87%29.65 "HgN/A
12:50 PM48 °FLight rain. Broken clouds.13 mph87%29.62 "HgN/A
12:20 PM48 °FLight rain. Broken clouds.17 mph82%29.62 "HgN/A
11:50 AM50 °FLight rain. Partly sunny.20 mph76%29.62 "HgN/A
11:20 AM50 °FLight rain. Partly sunny.20 mph76%29.59 "HgN/A
10:50 AM48 °FLight rain. Broken clouds.16 mph76%29.59 "HgN/A
10:20 AM46 °FSunny.14 mph76%29.59 "Hg10 mi
9:50 AM43 °FPassing clouds.7 mph76%29.59 "HgN/A
9:20 AM41 °FPassing clouds.3 mph81%29.59 "HgN/A
8:50 AM39 °FPassing clouds.3 mph87%29.59 "HgN/A
8:20 AM37 °FSunny.2 mph93%29.62 "Hg10 mi
7:50 AM37 °FSunny.2 mph93%29.59 "Hg10 mi
7:20 AM37 °FPassing clouds.3 mph93%29.62 "HgN/A
6:50 AM37 °FPassing clouds.3 mph93%29.62 "HgN/A
6:20 AM37 °FPassing clouds.3 mph87%29.62 "HgN/A
5:50 AM37 °FClear.6 mph87%29.62 "Hg10 mi
5:20 AM36 °FClear.3 mph93%29.62 "Hg10 mi
4:20 AM36 °FPassing clouds.3 mph93%29.65 "HgN/A
3:50 AM36 °FClear.2 mph93%29.65 "Hg10 mi
3:20 AM36 °FClear.2 mph93%29.65 "Hg10 mi
2:20 AM36 °FClear.2 mph93%29.68 "Hg10 mi
1:50 AM36 °FPassing clouds.3 mph93%29.68 "HgN/A
1:20 AM36 °FClear.1 mph93%29.68 "Hg10 mi
12:50 AM37 °FClear.1 mph87%29.71 "Hg10 mi
12:20 AM41 °FClear.2 mph87%29.71 "Hg10 mi
11:50 PM
Sat, Feb 6
41 °FClear.2 mph81%29.71 "Hg10 mi
11:20 PM43 °FPassing clouds.7 mph76%29.71 "HgN/A
10:50 PM45 °FClear.7 mph71%29.74 "Hg10 mi
9:50 PM43 °FClear.7 mph76%29.74 "Hg10 mi
9:20 PM41 °FPassing clouds.3 mph81%29.77 "HgN/A
8:50 PM43 °FPassing clouds.5 mph76%29.77 "HgN/A
8:20 PM43 °FClear.5 mph81%29.80 "Hg10 mi
7:50 PM46 °FClear.5 mph66%29.80 "Hg10 mi
7:20 PM50 °FClear.7 mph62%29.80 "Hg10 mi
6:50 PM50 °FClear.8 mph67%29.83 "Hg10 mi
6:20 PM52 °FClear.9 mph62%29.83 "Hg10 mi
5:50 PM52 °FClear.8 mph62%29.83 "Hg10 mi
5:20 PM52 °FSunny.9 mph67%29.83 "Hg10 mi
Weather by CustomWeather, © 2016

See weather overviewHow to use our weather pages